K2MST Weather Reports


time (UTC)temp
F
wind
direction
speed
knots
gust
knots
rain 1hr
in
rain 24hr
in
rain mn
in
humidity
%
barometer
mb
20260509201057 64 203 9.6 19.1 0.00 0.00 0.00 63 1003.9
20260509200017 63 158 8.7 16.5 0.00 0.00 0.00 63 1003.9
20260509195017 62 180 10.4 15.6 0.00 0.00 0.00 66 1004.0
20260509194019 61 158 7.8 13.0 0.00 0.00 0.00 66 1004.3
20260509193018 62 180 10.4 16.5 0.00 0.00 0.00 66 1004.5
20260509192019 63 180 7.0 11.3 0.00 0.00 0.00 64 1004.5
20260509191018 64 180 5.2 11.3 0.00 0.00 0.00 63 1004.6
20260509190019 63 180 7.8 14.8 0.00 0.00 0.00 63 1004.7
20260509185019 62 203 8.7 17.4 0.00 0.00 0.00 64 1004.9
20260509184019 63 203 6.1 10.4 0.00 0.00 0.00 65 1004.9
20260509183039 62 180 4.3 10.4 0.00 0.00 0.00 66 1005.1
20260509182018 60 180 7.0 12.2 0.00 0.00 0.00 68 1005.2
20260509181018 59 180 5.2 12.2 0.00 0.00 0.00 70 1005.3
20260509180018 59 203 6.1 11.3 0.00 0.00 0.00 70 1005.3
20260509175039 58 180 6.1 11.3 0.00 0.00 0.00 71 1005.3
20260509174018 58 180 4.3 10.4 0.00 0.00 0.00 72 1005.2
20260509173019 58 158 6.1 8.7 0.00 0.00 0.00 72 1005.3
20260509172018 57 158 4.3 9.6 0.00 0.00 0.00 74 1005.4
20260509171018 56 158 2.6 7.0 0.00 0.00 0.00 75 1005.5
20260509170018 56 135 2.6 9.6 0.00 0.00 0.00 76 1005.6
20260509165038 55 90 4.3 9.6 0.00 0.00 0.00 77 1005.5
20260509164018 55 68 4.3 10.4 0.00 0.00 0.00 76 1005.7
20260509163018 55 68 3.5 6.1 0.00 0.00 0.00 76 1006.0
20260509162018 55 158 2.6 5.2 0.00 0.00 0.00 76 1006.2
20260509161018 55 158 4.3 7.8 0.00 0.00 0.00 78 1006.3
20260509160018 54 180 3.5 7.8 0.00 0.00 0.00 78 1006.3
20260509155018 54 180 3.5 7.0 0.00 0.00 0.00 78 1006.4
20260509154018 54 180 4.3 9.6 0.00 0.00 0.00 77 1006.5
20260509153038 54 158 1.7 5.2 0.00 0.00 0.00 77 1006.6
20260509152018 54 68 2.6 5.2 0.00 0.00 0.00 75 1006.6
20260509151038 54 68 2.6 6.1 0.00 0.00 0.00 76 1006.8
20260509150018 54 68 3.5 6.1 0.00 0.00 0.00 74 1006.8
20260509145018 53 68 1.7 5.2 0.00 0.00 0.00 75 1006.8
20260509144018 53 68 3.5 7.0 0.00 0.01 0.00 75 1007.0
20260509143018 52 68 0.9 2.6 0.00 0.02 0.00 75 1007.0
20260509142017 52 68 2.6 6.1 0.00 0.02 0.00 75 1007.1
20260509141017 51 68 4.3 8.7 0.00 0.03 0.00 75 1007.0
20260509140038 51 68 2.6 5.2 0.00 0.03 0.00 75 1007.0
20260509135017 50 68 3.5 8.7 0.00 0.03 0.00 75 1007.3
20260509134017 50 90 2.6 6.1 0.00 0.03 0.00 75 1007.4
20260509133017 50 68 2.6 5.2 0.00 0.04 0.00 74 1007.4
20260509132017 50 68 0.9 3.5 0.00 0.04 0.00 75 1007.4
20260509131017 49 68 0.9 3.5 0.00 0.04 0.00 75 1007.6
20260509130017 49 90 2.6 4.3 0.00 0.04 0.00 74 1007.4
20260509125017 49 45 2.6 5.2 0.00 0.04 0.00 75 1007.2
20260509124037 48 68 1.7 5.2 0.00 0.04 0.00 76 1007.3
20260509123017 48 68 2.6 5.2 0.00 0.04 0.00 74 1007.3
20260509122017 48 90 0.9 3.5 0.00 0.04 0.00 73 1007.5
20260509121017 47 0.0 0.9 0.00 0.04 0.00 74 1007.7
20260509120017 47 0.0 0.0 0.00 0.04 0.00 73 1007.5
20260509115017 47 0.0 0.0 0.00 0.04 0.00 73 1007.7
20260509114017 46 0.0 0.9 0.00 0.04 0.00 73 1007.8
20260509113017 46 0.0 0.9 0.00 0.04 0.00 73 1007.8
20260509112017 45 0.0 2.6 0.00 0.04 0.00 73 1007.8
20260509111017 45 90 0.9 4.3 0.00 0.04 0.00 73 1007.8
20260509110017 45 90 0.9 2.6 0.00 0.04 0.00 72 1007.9
20260509105017 45 90 1.7 5.2 0.00 0.04 0.00 72 1007.8
20260509104017 45 68 1.7 4.3 0.00 0.04 0.00 72 1007.9
20260509103037 44 68 0.9 4.3 0.00 0.04 0.00 74 1007.8
20260509102017 43 0.0 0.0 0.00 0.04 0.00 78 1007.9
20260509101019 42 0.0 0.0 0.00 0.04 0.00 79 1007.7
20260509100018 42 0.0 0.9 0.00 0.04 0.00 78 1007.5
20260509095019 43 0.0 0.9 0.00 0.04 0.00 77 1007.5
20260509094020 43 0.0 0.0 0.00 0.04 0.00 76 1007.4
20260509093019 42 0.0 0.0 0.00 0.04 0.00 77 1007.4
20260509092019 42 0.0 0.0 0.00 0.04 0.00 78 1007.5
20260509091019 42 0.0 0.0 0.00 0.04 0.00 80 1007.6
20260509090018 41 0.0 0.0 0.00 0.04 0.00 80 1007.7
20260509085020 41 0.0 0.0 0.00 0.04 0.00 80 1008.0
20260509084019 41 0.0 0.9 0.00 0.04 0.00 80 1008.1
20260509083041 41 0.0 0.0 0.00 0.04 0.00 79 1008.1
20260509082059 42 0.0 0.0 0.00 0.04 0.00 78 1008.2
20260509081018 42 0.0 0.0 0.00 0.04 0.00 76 1008.2
20260509080018 43 0.0 0.0 0.00 0.04 0.00 76 1008.2
20260509075018 42 0.0 0.0 0.00 0.04 0.00 78 1008.3
20260509074018 42 0.0 0.0 0.00 0.04 0.00 78 1008.5
20260509073018 42 0.0 0.0 0.00 0.04 0.00 78 1008.5
20260509072018 42 0.0 0.0 0.00 0.04 0.00 76 1008.3
20260509071018 43 0.0 0.0 0.00 0.04 0.00 75 1008.3
20260509070018 43 0.0 0.0 0.00 0.04 0.00 75 1008.3
20260509065058 42 0.0 0.0 0.00 0.05 0.00 75 1008.4
20260509064020 43 0.0 0.0 0.00 0.05 0.00 75 1008.5
20260509063018 43 0.0 0.0 0.00 0.05 0.00 74 1008.6
20260509062018 43 0.0 0.0 0.00 0.07 0.00 73 1008.7
20260509061018 43 180 0.9 2.6 0.00 0.07 0.00 73 1008.8
20260509060018 43 158 0.9 1.7 0.00 0.07 0.00 72 1009.0
20260509055018 44 180 0.9 2.6 0.00 0.07 0.00 72 1009.2
20260509054058 44 180 1.7 3.5 0.00 0.07 0.00 72 1009.2
20260509053017 43 180 1.7 2.6 0.00 0.07 0.00 73 1009.3
20260509052018 43 180 1.7 2.6 0.00 0.07 0.00 74 1009.4
20260509051018 43 180 1.7 2.6 0.00 0.07 0.00 74 1009.4
20260509050018 43 180 1.7 2.6 0.00 0.07 0.00 73 1009.6
20260509045019 43 180 0.9 2.6 0.00 0.07 0.00 73 1009.6
20260509044038 42 180 0.9 1.7 0.00 0.07 0.00 75 1009.7
20260509043038 42 0.0 1.7 0.00 0.07 0.00 76 1009.7
20260509042018 42 158 1.7 3.5 0.00 0.07 0.00 76 1009.8
20260509041017 42 158 1.7 3.5 0.00 0.07 0.00 75 1009.8
20260509040018 42 180 1.7 2.6 0.00 0.07 0.07 75 1009.7
20260509035018 42 203 1.7 2.6 0.00 0.07 0.07 75 1009.7
20260509034018 42 180 0.9 2.6 0.00 0.07 0.07 74 1009.7
20260509033018 43 180 1.7 3.5 0.00 0.07 0.07 73 1009.8
20260509032018 43 180 1.7 2.6 0.00 0.07 0.07 73 1009.7
20260509031018 43 180 1.7 3.5 0.00 0.07 0.07 72 1009.8
20260509030018 43 180 1.7 2.6 0.00 0.07 0.07 72 1010.0
20260509025017 44 180 1.7 3.5 0.00 0.07 0.07 71 1010.0
20260509024037 44 180 1.7 2.6 0.00 0.07 0.07 71 1010.1
20260509023037 44 180 1.7 3.5 0.00 0.07 0.07 70 1010.1
20260509022017 45 180 2.6 4.3 0.00 0.07 0.07 69 1010.0
20260509021057 45 180 1.7 3.5 0.00 0.07 0.07 68 1010.1
20260509020017 46 180 2.6 4.3 0.00 0.07 0.07 67 1010.1
20260509015058 46 135 1.7 4.3 0.00 0.07 0.07 67 1010.0
20260509014017 46 180 2.6 4.3 0.00 0.07 0.07 66 1009.9
20260509013017 47 158 2.6 4.3 0.00 0.07 0.07 64 1009.7
20260509012017 48 158 1.7 3.5 0.00 0.07 0.07 62 1009.6
20260509011017 49 180 0.9 1.7 0.00 0.07 0.07 60 1009.4
20260509010017 49 158 0.9 1.7 0.00 0.07 0.07 57 1009.3
20260509005017 50 0.0 0.9 0.00 0.07 0.07 55 1009.1
20260509004017 51 180 0.9 2.6 0.00 0.07 0.07 52 1009.0
20260509003138 52 0.0 0.0 0.00 0.07 0.07 49 1009.0
20260509002017 53 0.0 0.9 0.00 0.07 0.07 46 1008.9
20260509001017 54 0.0 0.9 0.00 0.07 0.07 42 1008.8
20260509000017 55 0.0 0.0 0.00 0.07 0.07 41 1008.8
20260508235017 56 0.0 0.0 0.00 0.07 0.07 39 1008.7
20260508234017 56 23 1.7 2.6 0.00 0.07 0.07 39 1008.6
20260508233017 57 0.0 1.7 0.00 0.07 0.07 37 1008.5
20260508232018 57 23 0.9 2.6 0.00 0.07 0.07 38 1008.5
20260508231039 56 45 1.7 3.5 0.00 0.07 0.07 39 1008.5
20260508230019 56 23 2.6 3.5 0.00 0.07 0.07 39 1008.5
20260508225019 57 338 1.7 3.5 0.00 0.07 0.07 39 1008.5
20260508224019 57 338 3.5 8.7 0.00 0.07 0.07 39 1008.6
20260508223019 59 315 1.7 3.5 0.00 0.07 0.07 36 1008.6
20260508222019 60 225 0.9 2.6 0.00 0.07 0.07 38 1008.6
20260508221018 59 315 2.6 5.2 0.00 0.07 0.07 38 1008.8
20260508220018 58 225 0.9 5.2 0.00 0.07 0.07 38 1008.9
20260508215018 58 225 5.2 8.7 0.00 0.07 0.07 40 1009.0
20260508214018 57 248 3.5 11.3 0.00 0.07 0.07 41 1009.0
20260508213018 58 225 5.2 12.2 0.00 0.07 0.07 37 1009.1
20260508212018 58 270 5.2 8.7 0.00 0.07 0.07 39 1009.0
20260508211038 57 315 4.3 10.4 0.00 0.07 0.07 39 1008.9
20260508210018 57 270 5.2 9.6 0.00 0.07 0.07 40 1009.1
20260508205018 56 270 4.3 8.7 0.00 0.07 0.07 42 1009.2
20260508204018 58 270 4.3 8.7 0.00 0.07 0.07 40 1009.2
20260508203039 56 315 1.7 3.5 0.00 0.07 0.07 46 1009.2
20260508202018 56 248 2.6 7.8 0.00 0.07 0.07 47 1009.3